Location: Newark
(49.3808°N, 3.1844°E)
Time: 05:59:28
(UTC+00:00)

Vanguard 1 Rocket - All Passes

Search period start: 15 November 2019 00:00
Search period end: 25 November 2019 00:00
Orbit: 651 x 4225 km, 34.3° (Epoch: 14 November)

Date Brightness Start Highest point End Pass type
(mag) Time Alt. Az. Time Alt. Az. Time Alt. Az.
15 Nov - 04:11:42 10° S 04:13:28 12° SSE 04:15:24 10° SE visible
15 Nov - 06:32:50 10° SW 06:37:13 22° S 06:43:31 10° SE daylight
15 Nov - 08:56:50 10° SW 09:02:07 19° SSW 09:09:42 10° SSE daylight
16 Nov - 05:23:07 10° SSW 05:26:33 18° SSE 05:31:00 10° SE visible
16 Nov - 07:46:12 10° SW 07:50:53 20° S 07:57:38 10° SE daylight
16 Nov - 10:14:18 10° SW 10:16:24 11° SSW 10:18:44 10° SSW daylight
17 Nov - 04:13:52 10° SSW 04:16:04 13° SSE 04:18:32 10° SE visible
17 Nov - 06:35:58 10° SW 06:39:57 19° S 06:45:26 10° SE daylight
17 Nov - 09:01:05 10° SW 09:04:53 14° SSW 09:09:40 10° S daylight
18 Nov - 05:26:02 10° SW 05:29:16 17° S 05:33:20 10° SE visible
18 Nov - 07:49:53 10° SW 07:53:40 15° S 07:58:38 10° SSE daylight
19 Nov - 04:16:22 10° SSW 04:18:44 14° SSE 04:21:22 10° SE visible
19 Nov - 06:39:20 10° SW 06:42:43 16° S 06:47:05 10° SSE daylight
20 Nov - 03:07:53 10° S 03:08:14 10° SSE 03:08:35 10° SSE visible
20 Nov - 05:29:06 10° SW 05:32:01 16° S 05:35:30 10° SE visible
20 Nov - 07:54:37 10° SSW 07:56:27 11° SSW 07:58:30 10° S daylight
21 Nov - 04:19:06 10° SSW 04:21:27 14° S 04:24:00 10° SE visible
21 Nov - 06:43:10 10° SW 06:45:30 13° S 06:48:14 10° SSE daylight
22 Nov - 03:09:19 10° SSW 03:10:55 12° S 03:12:32 10° SSE visible
22 Nov - 05:32:28 10° SW 05:34:45 13° S 05:37:23 10° SSE visible
23 Nov - 04:22:02 10° SSW 04:24:10 13° S 04:26:27 10° SSE visible
24 Nov - 03:11:38 10° SSW 03:13:37 13° S 03:15:36 10° SSE visible
24 Nov - 05:36:45 10° SSW 05:37:31 10° S 05:38:18 10° S visible
